When you browse on this site, cookies collect data to enhance your experience and personalize the content and advertising you see.
Visit our Privacy Policy to learn more. By continuing to use the site, you agree to this use of cookies and data.
  • In Österreich
  • Länderverzeichnis
  • Für 7 Tage
  • Wassertemperatur
  • Satellitenkarten
  • Wetterkarte
  • News
  • Widgets
  • user-avatar
    Anmelden

    Stündliche Wetter Enkamp

    Heute, 19 April, Freitag

    Zeit Temperatur Niederschläge Wind Luftdruck Luftfeuchtigkeit
    00:00 +6°C° 0 mm 2 m/S 624 mmHg 59%
    01:00 +5°C° 0.1 mm 2 m/S 623 mmHg 60%
    02:00 +5°C° 0.1 mm 2 m/S 623 mmHg 62%
    03:00 +4°C° 0.1 mm 2 m/S 623 mmHg 63%
    04:00 +5°C° 0.1 mm 2 m/S 623 mmHg 62%
    05:00 +5°C° 0.1 mm 2 m/S 624 mmHg 61%
    06:00 +5°C° 0.1 mm 2 m/S 624 mmHg 59%
    07:00 +7°C° 0.2 mm 2 m/S 625 mmHg 57%
    08:00 +8°C° 0.2 mm 2 m/S 626 mmHg 54%
    09:00 +10°C° 0.2 mm 2 m/S 627 mmHg 51%
    10:00 +12°C° 0.2 mm 2 m/S 627 mmHg 49%
    11:00 +13°C° 0.2 mm 2 m/S 628 mmHg 46%
    12:00 +14°C° 0.2 mm 2 m/S 629 mmHg 44%
    13:00 +15°C° 0.1 mm 2 m/S 629 mmHg 44%
    14:00 +15°C° 0.1 mm 1 m/S 629 mmHg 45%
    15:00 +15°C° 0.1 mm 1 m/S 629 mmHg 46%
    16:00 +14°C° 0 mm 1 m/S 629 mmHg 52%
    17:00 +12°C° 0 mm 1 m/S 628 mmHg 57%
    18:00 +11°C° 0 mm 1 m/S 628 mmHg 62%
    19:00 +10°C° 0 mm 1 m/S 628 mmHg 65%
    20:00 +9°C° 0 mm 1 m/S 628 mmHg 67%
    21:00 +7°C° 0 mm 1 m/S 628 mmHg 70%
    22:00 +7°C° 0 mm 1 m/S 627 mmHg 69%
    23:00 +6°C° 0 mm 1 m/S 627 mmHg 67%

    Morgen, 20 April, Samstag

    Zeit Temperatur Niederschläge Wind Luftdruck Luftfeuchtigkeit
    00:00 +6°C° 0 mm 1 m/S 627 mmHg 66%
    01:00 +6°C° 0 mm 1 m/S 626 mmHg 66%
    02:00 +5°C° 0 mm 1 m/S 626 mmHg 66%
    03:00 +5°C° 0 mm 1 m/S 626 mmHg 66%
    04:00 +5°C° 0 mm 1 m/S 626 mmHg 64%
    05:00 +5°C° 0 mm 1 m/S 626 mmHg 63%
    06:00 +6°C° 0 mm 1 m/S 626 mmHg 61%
    07:00 +8°C° 0 mm 1 m/S 626 mmHg 55%
    08:00 +11°C° 0 mm 1 m/S 627 mmHg 48%
    09:00 +13°C° 0 mm 1 m/S 628 mmHg 41%
    10:00 +14°C° 0 mm 1 m/S 628 mmHg 40%
    11:00 +15°C° 0 mm 2 m/S 629 mmHg 40%
    12:00 +16°C° 0 mm 2 m/S 629 mmHg 39%
    13:00 +14°C° 0.3 mm 2 m/S 628 mmHg 46%
    14:00 +13°C° 0.3 mm 2 m/S 627 mmHg 53%
    15:00 +10°C° 0.3 mm 2 m/S 626 mmHg 60%
    16:00 +9°C° 1 mm 2 m/S 626 mmHg 66%
    17:00 +9°C° 1 mm 1 m/S 625 mmHg 73%
    18:00 +8°C° 1 mm 1 m/S 625 mmHg 80%
    19:00 +7°C° 1.5 mm 1 m/S 625 mmHg 82%
    20:00 +5°C° 1.5 mm 2 m/S 624 mmHg 85%
    21:00 +4°C° 1.5 mm 2 m/S 624 mmHg 88%
    22:00 +4°C° 1.6 mm 2 m/S 624 mmHg 89%
    23:00 +5°C° 1.6 mm 1 m/S 624 mmHg 90%

    übermorgen, 21 April, Sonntag

    Zeit Temperatur Niederschläge Wind Luftdruck Luftfeuchtigkeit
    00:00 +5°C° 1.6 mm 1 m/S 623 mmHg 91%
    01:00 +5°C° 0.6 mm 1 m/S 623 mmHg 91%
    02:00 +4°C° 0.6 mm 1 m/S 622 mmHg 91%
    03:00 +4°C° 0.6 mm 1 m/S 622 mmHg 92%
    04:00 +4°C° 0.2 mm 1 m/S 622 mmHg 91%
    05:00 +4°C° 0.2 mm 1 m/S 622 mmHg 91%
    06:00 +4°C° 0.2 mm 1 m/S 621 mmHg 91%
    07:00 +5°C° 0 mm 1 m/S 622 mmHg 87%
    08:00 +5°C° 0 mm 2 m/S 622 mmHg 82%
    09:00 +7°C° 0 mm 2 m/S 623 mmHg 78%
    10:00 +7°C° 0 mm 2 m/S 623 mmHg 74%
    11:00 +8°C° 0 mm 2 m/S 623 mmHg 70%
    12:00 +9°C° 0 mm 2 m/S 623 mmHg 67%
    13:00 +9°C° 0.1 mm 2 m/S 622 mmHg 67%
    14:00 +9°C° 0.1 mm 2 m/S 622 mmHg 68%
    15:00 +9°C° 0.1 mm 2 m/S 621 mmHg 68%
    16:00 +9°C° 0 mm 1 m/S 621 mmHg 72%
    17:00 +8°C° 0 mm 1 m/S 620 mmHg 75%
    18:00 +7°C° 0 mm 1 m/S 620 mmHg 79%
    19:00 +6°C° 0 mm 1 m/S 619 mmHg 82%
    20:00 +6°C° 0 mm 1 m/S 619 mmHg 85%
    21:00 +5°C° 0 mm 1 m/S 619 mmHg 88%
    22:00 +5°C° 0.1 mm 1 m/S 618 mmHg 88%
    23:00 +5°C° 0.1 mm 1 m/S 618 mmHg 88%

    22 April, Montag

    Zeit Temperatur Niederschläge Wind Luftdruck Luftfeuchtigkeit
    00:00 +5°C° 0.1 mm 1 m/S 617 mmHg 88%
    01:00 +4°C° 0 mm 1 m/S 616 mmHg 89%
    02:00 +4°C° 0 mm 1 m/S 616 mmHg 91%
    03:00 +3°C° 0 mm 1 m/S 615 mmHg 92%
    04:00 +4°C° 0.1 mm 1 m/S 615 mmHg 91%
    05:00 +4°C° 0.1 mm 1 m/S 615 mmHg 90%
    06:00 +5°C° 0.1 mm 1 m/S 614 mmHg 90%
    07:00 +5°C° 0.6 mm 1 m/S 614 mmHg 88%
    08:00 +6°C° 0.6 mm 1 m/S 614 mmHg 87%
    09:00 +6°C° 0.6 mm 1 m/S 614 mmHg 86%
    10:00 +7°C° 0.4 mm 1 m/S 614 mmHg 83%
    11:00 +8°C° 0.4 mm 1 m/S 614 mmHg 81%
    12:00 +8°C° 0.4 mm 1 m/S 614 mmHg 78%
    13:00 +8°C° 0.4 mm 1 m/S 613 mmHg 79%
    14:00 +8°C° 0.4 mm 1 m/S 613 mmHg 79%
    15:00 +8°C° 0.4 mm 1 m/S 613 mmHg 80%
    16:00 +8°C° 0.5 mm 1 m/S 612 mmHg 83%
    17:00 +7°C° 0.5 mm 1 m/S 612 mmHg 87%
    18:00 +6°C° 0.5 mm 1 m/S 612 mmHg 90%
    19:00 +6°C° 0.5 mm 1 m/S 612 mmHg 92%
    20:00 +6°C° 0.5 mm 1 m/S 612 mmHg 94%
    21:00 +5°C° 0.5 mm 1 m/S 612 mmHg 96%
    22:00 +5°C° 0.3 mm 1 m/S 611 mmHg 96%
    23:00 +5°C° 0.3 mm 1 m/S 611 mmHg 96%

    23 April, Dienstag

    Zeit Temperatur Niederschläge Wind Luftdruck Luftfeuchtigkeit
    00:00 +4°C° 0.3 mm 2 m/S 611 mmHg 96%
    01:00 +4°C° 0.1 mm 2 m/S 610 mmHg 95%
    02:00 +3°C° 0.1 mm 2 m/S 610 mmHg 94%
    03:00 +3°C° 0.1 mm 2 m/S 610 mmHg 93%
    04:00 +3°C° 0 mm 2 m/S 610 mmHg 92%
    05:00 +3°C° 0 mm 2 m/S 610 mmHg 91%
    06:00 +3°C° 0 mm 2 m/S 610 mmHg 90%
    07:00 +5°C° 0 mm 2 m/S 611 mmHg 85%
    08:00 +7°C° 0 mm 2 m/S 611 mmHg 80%
    09:00 +9°C° 0 mm 3 m/S 612 mmHg 74%
    10:00 +9°C° 0.1 mm 3 m/S 612 mmHg 73%
    11:00 +10°C° 0.1 mm 3 m/S 613 mmHg 71%
    12:00 +10°C° 0.1 mm 3 m/S 613 mmHg 69%
    13:00 +9°C° 0.3 mm 3 m/S 612 mmHg 73%
    14:00 +8°C° 0.3 mm 3 m/S 612 mmHg 78%
    15:00 +8°C° 0.3 mm 3 m/S 611 mmHg 83%
    16:00 +7°C° 0.2 mm 3 m/S 612 mmHg 84%
    17:00 +7°C° 0.2 mm 3 m/S 612 mmHg 85%
    18:00 +5°C° 0.2 mm 3 m/S 612 mmHg 87%
    19:00 +5°C° 0.2 mm 3 m/S 612 mmHg 89%
    20:00 +5°C° 0.2 mm 2 m/S 613 mmHg 91%
    21:00 +5°C° 0.2 mm 2 m/S 613 mmHg 93%
    22:00 +4°C° 0 mm 2 m/S 613 mmHg 91%
    23:00 +3°C° 0 mm 2 m/S 613 mmHg 89%

    24 April, Mittwoch

    Zeit Temperatur Niederschläge Wind Luftdruck Luftfeuchtigkeit
    00:00 +2°C° 0 mm 2 m/S 613 mmHg 88%
    01:00 +3°C° 0.2 mm 2 m/S 613 mmHg 87%
    02:00 +3°C° 0.2 mm 2 m/S 614 mmHg 86%
    03:00 +3°C° 0.2 mm 2 m/S 614 mmHg 86%
    04:00 +2°C° 0.9 mm 3 m/S 614 mmHg 88%
    05:00 +2°C° 0.9 mm 3 m/S 615 mmHg 90%
    06:00 +3°C° 0.9 mm 3 m/S 615 mmHg 92%
    07:00 +3°C° 1.7 mm 3 m/S 615 mmHg 93%
    08:00 +4°C° 1.7 mm 2 m/S 616 mmHg 93%
    09:00 +4°C° 1.7 mm 2 m/S 616 mmHg 93%
    10:00 +3°C° 2.2 mm 2 m/S 616 mmHg 93%
    11:00 +3°C° 2.2 mm 2 m/S 616 mmHg 93%
    12:00 +3°C° 2.2 mm 2 m/S 616 mmHg 93%
    13:00 +4°C° 1.6 mm 2 m/S 616 mmHg 93%
    14:00 +4°C° 1.6 mm 2 m/S 616 mmHg 93%
    15:00 +4°C° 1.6 mm 2 m/S 616 mmHg 94%
    16:00 +4°C° 1.5 mm 2 m/S 616 mmHg 95%
    17:00 +3°C° 1.5 mm 2 m/S 616 mmHg 96%
    18:00 +4°C° 1.5 mm 1 m/S 615 mmHg 97%
    19:00 +4°C° 1.7 mm 1 m/S 616 mmHg 96%
    20:00 +4°C° 1.7 mm 1 m/S 616 mmHg 96%
    21:00 +3°C° 1.7 mm 1 m/S 616 mmHg 96%
    22:00 +3°C° 0.5 mm 1 m/S 616 mmHg 94%
    23:00 +2°C° 0.5 mm 1 m/S 615 mmHg 92%
    Mehr zeigen